{"data":{"norad_id":55633,"intl_designator":"2023-021F","name":"STARLINK-5498","alt_names":[],"object_type":"PAYLOAD","status":"ACTIVE","operator":null,"country":"US","launch_date":"2023-02-17","launch_site_code":"AFWTR","launch_vehicle":null,"mission":null,"orbit_class":"UNKNOWN","rcs_meters":null,"size_class":null,"mass_kg":null,"dimensions":null,"purposes":["comms"],"wikipedia_slug":null,"has_3d_model":false,"image_url":null,"decayed_at":null,"tle_current":{"epoch":"2026-09-20T22:00:03.000096Z","epoch_age_seconds":67082,"freshness":"FRESH","line1":"1 55633U 23021F   26263.91670139  .00073856  00000+0  51136-2 0  9991","line2":"2 55633  70.0008  72.1476 0003133 316.1793  29.5256 15.05242350  5715","mean_motion":15.0524235,"eccentricity":0.0003133,"inclination_deg":70.0008,"raan_deg":72.1476,"arg_perigee_deg":316.1793,"mean_anomaly_deg":29.5256,"bstar":0.0051136,"rev_number":571,"period_min":95.665658091536,"perigee_km":548.59103817757,"apogee_km":552.93268620462,"semimajor_km":6928.8988621911,"source":"CELESTRAK","updated_at":"2026-09-21T09:00:33.280201Z"}}}